SCP
1 1 1 1 1 1 1 1 1 1 1 0 1 1 1 1 1 1 1 1 1 1 1 1 1 0 0 0 0 0 0 0 0 1 1 1 1 1 1 1 1 1 1
1 1 1 1 1 1 1 1 1 1 0 0 0 1 1 1 1 1 1 1 1 1 1 1 0 0 0 0 0 0 0 0 0 1 1 1 1 1 1 1 1 1 1
1 1 1 1 1 1 1 1 1 1 0 0 0 0 1 1 1 1 1 1 0 0 0 0 0 0 0 0 0 0 0 0 1 1 1 1 1 1 1 1 1 1 1
1 1 1 1 1 1 1 1 1 1 1 1 1 0 1 1 1 0 0 0 0 0 0 0 0 0 0 0 0 0 0 1 1 1 1 1 1 1 1 1 1 1 1
1 1 1 1 1 1 1 1 1 1 1 1 1 1 1 1 1 1 0 1 0 0 0 0 0 0 0 0 0 0 0 1 1 1 1 1 1 1 1 1 1 1 1
1 1 1 1 1 1 1 1 1 1 1 1 1 1 1 1 1 0 0 0 0 0 0 0 0 0 0 1 1 1 1 1 1 1 1 1 1 1 1 1 1 1 1
0 0 1 1 1 1 1 1 1 1 1 1 1 1 1 1 1 0 0 0 0 1 1 1 0 1 1 1 1 1 1 1 1 1 1 1 1 1 1 1 1 1 1
0 0 1 1 1 1 1 1 1 1 1 1 1 1 1 1 1 1 1 0 0 0 1 1 1 1 1 1 1 1 1 1 1 1 1 1 1 1 1 1 1 1 1
0 0 1 1 1 1 1 1 1 1 1 1 1 1 1 1 1 1 1 0 0 0 1 1 1 1 1 1 1 1 2 1 1 1 1 1 1 1 1 1 1 1 1
0 0 1 1 1 1 1 1 1 1 1 1 1 1 1 1 1 1 1 1 0 0 1 1 1 1 1 1 1 1 2 1 1 0 1 1 1 1 1 1 1 1 1
0 0 0 1 1 1 0 0 1 1 1 1 1 1 1 1 1 1 1 1 0 0 0 1 1 1 1 1 1 1 1 1 0 0 1 1 1 1 1 1 1 1 1
0 0 0 0 0 0 0 0 0 0 0 0 1 1 1 1 1 1 1 1 0 0 0 0 1 1 1 1 1 1 1 1 1 1 1 1 1 1 1 1 1 1 1
0 0 0 0 0 0 0 0 0 0 0 0 1 1 1 1 1 1 1 1 0 0 0 0 0 1 1 1 1 1 1 1 1 1 1 1 1 1 1 1 1 1 1
0 0 0 0 0 0 0 0 0 0 0 1 1 1 1 1 1 1 1 1 0 0 0 0 0 0 1 1 1 1 1 1 1 1 1 1 1 1 1 1 1 1 1
0 0 0 0 0 0 0 0 0 0 0 0 1 1 1 1 1 1 1 1 0 0 0 0 0 0 1 1 1 1 1 1 0 0 1 1 1 1 1 1 1 1 1
0 0 0 0 0 0 0 0 0 0 0 0 0 1 1 1 1 1 1 1 1 0 0 0 0 0 1 1 1 1 1 1 0 0 0 0 0 1 1 1 1 1 1
0 0 0 1 1 1 0 0 0 0 0 0 0 0 1 1 1 1 1 1 1 0 0 0 0 1 1 1 1 1 1 1 1 0 0 0 0 1 1 1 1 1 1
0 0 1 1 1 1 1 0 0 0 0 0 0 0 1 1 1 1 1 1 1 0 0 0 0 1 1 1 1 1 1 1 1 0 0 0 0 0 0 1 1 1 1
1 1 1 1 1 1 1 1 1 1 1 1 1 1 1 0 1 1 0 1 0 0 0 0 0 1 1 1 1 0 0 0 1 0 0 0 0 0 0 0 1 1 1
1 1 1 1 1 2 2 1 1 1 1 1 1 0 0 0 0 1 1 0 0 0 0 0 0 1 1 1 1 0 0 0 0 0 0 0 0 0 0 0 1 1 1
1 1 1 1 2 2 2 2 2 1 1 0 0 0 0 0 1 1 0 0 0 0 0 1 1 1 1 1 1 1 0 0 0 0 0 1 0 0 1 1 1 1 1
1 1 1 2 2 3 3 3 2 2 1 0 0 0 0 0 0 0 0 0 0 1 1 1 1 1 1 1 1 0 0 0 0 0 0 1 1 1 1 1 1 1 1
1 1 2 3 3 3 4 3 2 2 1 0 0 0 0 0 0 0 0 0 1 1 1 1 1 1 1 1 0 0 0 0 0 0 0 0 1 1 1 1 1 1 1
2 2 3 3 3 3 3 3 3 2 1 0 0 0 0 0 0 0 0 0 1 1 1 1 1 1 1 1 1 1 1 1 1 1 1 0 0 0 1 1 1 1 1
2 3 3 3 4 3 3 3 2 1 1 0 0 0 0 0 0 0 0 1 1 1 1 1 1 1 1 1 1 1 1 1 1 1 1 1 1 0 0 0 0 1 1
3 3 3 4 4 4 3 2 1 1 0 0 0 0 0 0 0 0 0 1 1 2 2 2 1 1 1 1 1 1 1 1 1 1 1 1 1 1 1 0 0 0 1
Wind_Speed
1 2 5 7 9 9 10 10 10 11 11 11 11 11 11 12 12 11 11 10 10 10 10 10 9 8 8 8 7 7 7 7 7 7 7 8 7 7 7 7 6 5 7
3 3 6 8 9 9 10 10 10 10 11 11 11 11 11 11 11 11 11 10 10 10 10 9 8 7 7 7 7 6 6 6 6 6 7 6 6 6 6 6 6 4 7
4 3 5 7 8 9 9 9 10 10 11 11 10 10 10 11 10 10 10 10 10 9 9 9 8 7 7 6 6 6 6 6 5 6 5 3 4 5 5 6 6 7 7
4 3 4 7 8 9 9 9 10 10 10 10 10 10 10 10 10 10 9 9 9 9 8 8 7 7 6 5 5 5 5 5 6 5 3 3 3 5 6 6 6 7 7
4 3 4 8 8 9 9 9 10 10 10 9 9 9 10 9 9 9 8 8 8 8 7 7 7 6 6 5 4 4 4 5 6 4 3 2 2 5 6 6 7 7 6
3 2 3 7 7 8 8 8 9 9 9 9 9 9 9 9 9 8 8 8 8 7 6 6 6 5 5 4 3 3 4 5 4 3 3 2 2 4 6 6 6 6 6
3 2 2 5 7 7 7 7 8 8 8 8 8 8 8 8 8 7 8 8 7 6 5 5 4 4 3 2 2 2 3 5 4 3 3 2 3 5 6 6 6 6 6
3 2 1 4 6 7 7 7 7 7 7 7 7 7 8 7 7 7 7 6 5 5 4 4 3 3 2 1 1 2 3 4 4 3 3 3 3 5 5 6 6 6 6
3 2 2 2 3 5 6 6 6 6 6 6 6 6 6 6 6 6 5 5 4 4 3 3 2 2 2 2 2 2 3 4 3 2 3 2 5 5 5 6 6 6 6
3 2 2 2 3 2 2 4 5 5 5 5 5 5 5 4 4 3 3 3 3 2 2 1 2 2 2 2 2 2 2 3 2 2 1 2 5 6 5 6 6 6 6
2 1 1 2 2 2 1 2 3 4 4 4 3 3 3 2 2 1 1 1 1 1 1 1 1 1 2 3 3 2 2 1 2 1 1 3 5 5 5 5 6 6 7
2 1 1 1 1 1 1 2 2 2 2 2 2 2 2 2 1 1 1 1 2 2 2 2 2 3 3 2 2 2 1 2 1 1 1 4 5 5 6 6 6 6 7
3 2 2 2 1 1 1 1 1 1 1 1 2 1 1 1 1 1 1 1 2 2 2 2 3 2 1 1 1 1 1 1 0 1 1 4 4 5 5 5 5 5 7
3 3 3 2 2 1 1 1 1 1 1 0 0 1 1 1 1 1 1 1 1 1 1 1 1 1 1 1 0 0 0 0 1 1 1 4 4 4 4 4 4 5 6
4 4 3 3 3 2 1 1 1 1 1 1 0 0 1 1 0 0 1 1 1 1 1 1 1 1 1 1 0 0 0 1 1 1 1 3 3 4 4 4 4 4 5
4 4 4 4 3 3 2 1 1 1 1 1 1 1 1 1 1 0 0 0 0 0 0 0 0 0 0 0 0 0 0 0 1 1 1 2 3 3 4 4 4 5 5
5 4 4 4 3 3 3 2 2 1 1 1 1 1 1 1 2 1 1 0 0 0 1 1 1 1 1 1 1 1 0 0 0 1 1 1 1 2 3 4 4 4 5
4 4 4 5 4 4 3 2 1 1 1 1 1 0 1 1 2 1 1 0 0 1 1 1 1 1 1 1 1 1 0 0 1 1 1 1 1 1 2 3 3 4 5
5 5 4 4 4 4 3 2 1 1 1 0 0 0 1 1 2 1 1 0 1 1 0 0 1 1 0 1 1 1 1 0 1 1 1 1 1 1 1 2 2 3 4
5 5 5 4 3 3 2 2 1 1 0 0 0 0 1 1 1 1 1 0 1 1 1 1 1 1 0 0 1 1 1 1 1 1 1 1 1 2 2 1 1 2 3
4 4 4 4 3 3 2 2 1 1 0 0 0 1 1 1 1 1 1 1 1 1 1 1 1 1 1 1 1 2 2 1 1 1 1 1 2 2 1 1 1 1 1
6 5 5 4 4 4 2 2 2 1 1 1 0 0 0 1 1 1 1 1 1 1 1 1 1 1 0 1 1 1 2 3 2 1 0 1 1 1 1 2 2 2 1
6 6 6 5 4 4 3 2 2 2 1 1 0 0 1 1 1 1 1 1 1 1 1 1 1 2 1 0 1 1 1 1 2 2 1 1 1 1 1 1 2 2 2
7 6 5 5 4 4 4 4 4 3 2 2 1 1 1 1 1 1 1 1 1 1 1 1 1 1 2 1 0 0 1 1 0 2 2 1 1 1 1 2 2 2 3
6 6 5 5 4 4 4 5 4 3 2 1 1 1 1 1 1 1 1 1 2 1 1 1 1 1 1 1 1 1 1 1 1 1 2 3 2 1 1 2 2 2 2
5 5 5 5 5 4 4 4 5 4 3 2 2 2 1 1 1 1 1 1 2 1 1 1 1 1 1 1 1 1 1 1 1 1 2 2 3 2 2 1 1 2 2
Wind_Direction
124 128 126 121 119 118 122 124 125 124 122 122 123 125 127 128 130 130 129 128 129 129 125 122 121 123 125 125 126 130 135 141 144 148 144 144 144 145 144 141 135 133 138
131 123 126 120 119 120 122 124 124 124 125 125 124 124 127 128 127 126 126 124 126 127 127 124 122 121 123 127 131 135 139 144 149 148 145 145 143 144 143 143 148 145 147
110 113 121 120 121 122 122 122 123 125 127 127 126 125 126 127 127 125 124 123 124 124 123 124 123 123 124 128 134 136 139 142 140 138 131 122 132 140 144 150 158 156 154
109 102 118 123 124 123 122 122 124 125 127 126 127 128 128 129 129 129 128 127 126 126 127 126 123 123 125 131 138 140 144 144 138 130 115 118 137 146 149 155 159 160 159
98 100 126 129 128 126 123 123 123 124 126 127 126 127 128 128 130 130 129 128 126 125 126 125 124 122 127 133 138 141 144 141 135 126 112 112 127 150 152 157 160 158 154
101 103 132 134 132 128 124 124 125 126 127 126 126 126 127 126 126 129 128 126 127 127 127 124 125 126 132 137 146 151 153 149 138 129 126 139 153 165 163 163 157 156 151
118 105 116 128 131 130 129 129 128 127 127 127 128 128 129 128 127 127 124 124 125 124 121 122 124 128 132 137 147 150 148 152 146 141 145 160 175 171 169 165 164 166 160
113 101 96 128 131 137 137 137 132 131 129 131 131 131 130 128 125 124 124 123 123 122 121 124 127 127 129 115 98 124 143 150 146 154 152 166 179 171 170 173 177 175 174
92 86 62 62 99 128 132 136 138 137 137 136 135 133 131 128 126 125 125 125 123 120 118 115 111 102 91 78 75 96 121 128 134 149 166 174 185 186 183 183 183 181 181
76 67 65 55 53 54 86 126 138 141 137 133 134 134 129 125 122 122 122 139 136 130 128 118 94 78 59 53 63 78 96 108 129 142 154 184 192 193 194 196 194 191 188
111 74 65 72 66 63 63 108 118 135 131 120 122 122 95 58 63 89 121 140 129 115 112 105 86 75 62 48 62 89 87 90 119 135 169 193 198 200 204 204 200 197 194
177 166 130 121 108 85 89 66 53 77 80 72 57 67 60 52 30 22 13 16 21 35 43 45 44 49 59 46 57 74 83 109 121 174 195 205 208 208 208 210 208 204 197
182 177 170 167 138 113 86 76 58 64 66 59 59 66 68 48 24 23 18 10 20 25 33 31 33 37 54 65 64 75 113 124 169 237 214 222 222 217 216 214 205 202 196
174 190 181 166 151 154 128 99 101 97 92 100 82 107 102 69 32 18 18 355 29 27 25 19 27 19 28 48 84 138 155 165 214 238 233 233 227 216 217 211 199 194 189
179 189 182 169 172 172 154 171 137 145 164 188 221 186 155 149 157 13 351 3 16 27 40 23 17 6 23 34 349 197 195 218 234 248 260 240 230 212 211 207 201 189 182
182 187 176 174 175 167 173 179 165 170 180 193 223 217 184 171 179 171 308 318 8 31 43 21 332 13 37 78 13 343 272 259 256 275 276 261 244 216 206 203 201 198 188
181 178 175 176 169 174 182 185 167 178 185 210 234 219 192 182 180 182 214 262 356 80 59 54 48 50 50 51 21 340 0 337 290 283 280 281 281 247 215 207 205 206 198
174 172 183 179 166 175 177 172 157 168 174 209 227 209 185 179 178 176 188 233 94 93 90 107 81 54 41 35 355 329 349 346 282 267 261 263 261 257 242 221 211 212 210
179 174 178 179 168 173 168 152 146 136 159 199 155 161 170 172 168 163 172 195 96 97 81 114 91 102 65 359 328 336 329 307 292 283 287 277 253 242 242 243 225 216 214
178 172 173 172 166 154 134 112 93 82 59 63 124 195 174 167 159 150 159 124 103 109 79 66 93 79 98 353 2 360 327 296 277 266 266 274 264 245 233 238 240 219 211
173 172 176 172 168 146 134 141 136 152 157 141 203 206 175 159 156 152 163 148 124 117 121 116 118 85 51 71 51 355 348 351 321 271 256 256 259 251 226 218 220 211 219
186 185 182 184 176 170 163 155 149 143 151 164 303 24 165 170 181 185 177 175 148 126 103 110 119 110 34 60 106 52 352 346 352 1 7 267 270 258 241 229 209 206 221
193 192 193 190 183 178 161 125 102 76 55 47 28 317 296 211 189 178 180 174 156 157 180 191 159 160 173 27 95 141 144 270 315 332 335 326 305 282 270 257 231 217 217
200 190 189 185 185 181 165 159 162 169 183 205 201 224 276 243 192 184 180 181 170 171 191 226 181 175 163 181 56 84 159 163 187 319 326 329 321 300 277 268 252 229 220
191 184 180 176 185 182 176 174 172 179 188 180 165 191 262 307 273 218 191 190 181 186 198 203 172 156 164 177 182 160 125 93 160 201 297 320 330 318 276 256 249 241 231
183 179 175 176 188 182 180 182 182 185 183 180 188 201 229 255 275 264 209 208 193 188 202 202 181 163 174 170 170 165 167 174 189 190 242 285 302 309 302 267 246 248 235